Location: Bandys
(35.4750°N, 81.0830°W)
Time: 17:07:17
(UTC-05:00)

Daily predictions for brighter satellites

Satellite Brightness Start Highest point End
(mag) Time Altitude Azimuth Time Altitude Azimuth Time Altitude Azimuth
Cosmos 2278 Rocket 3.3 17:59:02 10° N 18:03:30 23° ENE 18:07:55 10° ESE
Cosmos 1328 Rocket 3.7 18:00:37 10° N 18:05:00 56° E 18:09:21 10° SSE
Cosmos 540 Rocket 4.1 18:00:57 10° SSE 18:05:35 34° E 18:10:14 10° NE
Cosmos 1340 Rocket 4.5 18:03:49 10° ESE 18:06:02 15° E 18:08:14 10° NE
USA 215 4.0 18:01:57 10° E 18:07:43 34° NNE 18:13:28 10° NNW
Cosmos 2151 3.8 18:04:29 10° SSE 18:08:10 30° E 18:11:52 10° NNE
Cosmos 332 Rocket 3.8 18:04:12 10° SSW 18:09:00 84° ESE 18:13:52 10° NNE
MONITOR-E 4.5 18:07:22 10° SSE 18:10:24 46° ENE 18:13:28 10° N
Cosmos 1908 3.4 18:07:26 10° N 18:11:20 81° W 18:15:13 10° S
Cosmos 1515 Rocket 3.8 18:07:34 10° N 18:11:54 48° E 18:16:11 10° SSE
Abrixas 3.6 18:10:48 10° SSW 18:13:23 28° SE 18:15:49 11° ENE
Cosmos 1844 3.9 18:09:12 10° N 18:14:48 50° ENE 18:20:23 10° SE
SL-14 R/B 3.9 18:11:18 10° SSE 18:14:50 34° E 18:18:24 10° NNE
SKYMED 2 3.7 18:11:04 10° NNE 18:15:20 55° E 18:19:35 10° S
Cosmos 1674 3.6 18:12:55 10° SSW 18:16:37 51° W 18:20:22 10° N
SPOT 3 Rocket 3.8 18:11:44 10° S 18:16:52 75° WSW 18:22:02 10° NNW
MSX 3.9 18:11:25 10° SSE 18:17:08 90° WNW 18:22:54 10° NNW
Cosmos 1626 4.2 18:17:32 10° E 18:17:48 10° E 18:17:51 10° E
Elektron 3 4.1 18:13:58 10° NNW 18:18:38 64° NE 18:21:35 10° SE
Thor Agena Rocket 4.2 18:15:09 10° N 18:20:20 61° WNW 18:25:25 10° SSW
Cosmos 1484 Rocket 2.8 18:16:32 10° SSE 18:20:21 63° ENE 18:24:17 10° N
Cosmos 1151 Rocket 3.4 18:17:30 10° N 18:21:32 40° E 18:25:34 10° SSE
Cosmos 1634 Rocket 4.0 18:15:49 10° N 18:21:57 61° E 18:28:01 10° SSE
COSMOS 2428 3.8 18:16:55 10° SW 18:22:24 46° WNW 18:27:53 10° N
SEDSat Delta rocket 4.4 18:17:42 10° W 18:23:12 46° SSW 18:28:01 10° ESE
Cosmos 1500 Rocket 3.5 18:19:04 10° S 18:23:22 81° E 18:27:43 10° N
Cosmos 1125 Rocket 3.9 18:20:41 10° N 18:25:35 40° ENE 18:30:27 10° SE
Cosmos 2237 Rocket 2.3 18:20:23 10° S 18:25:52 58° ESE 18:31:24 10° NNE
ALOS 3.8 18:27:33 10° ESE 18:30:14 15° ENE 18:32:54 10° NNE
SL-16 R/B 3.2 18:26:09 10° SSE 18:30:40 25° ESE 18:34:21 13° NE
BREEZE-M DEB (TANK) 2.5 18:24:16 10° NW 18:31:05 88° NE 18:33:59 10° SE
Cosmos 44 3.4 18:26:03 10° SSW 18:31:20 70° ESE 18:36:26 10° NE
IDEFIX/ARIANE 42P 4.2 18:28:13 10° SSW 18:33:03 39° W 18:37:55 10° NNW
Cosmos 1300 2.8 18:32:15 10° N 18:36:02 54° E 18:39:46 10° SSE
Cosmos 1726 2.1 18:34:24 10° N 18:38:08 60° E 18:41:51 10° SSE
Hubble Space Telescope 3.0 18:35:49 10° WSW 18:38:57 21° SSW 18:42:06 10° SE
Cosmos 371 Rocket 3.7 18:34:39 10° SSW 18:39:25 65° WNW 18:44:13 10° N
Sich 1 4.4 18:36:49 10° SE 18:40:03 20° E 18:40:51 19° ENE
NOSS 0 Rocket 4.0 18:34:27 10° SSW 18:40:41 86° WNW 18:46:57 10° NNE
CZ-4 R/B 4.2 18:38:40 10° SW 18:41:37 21° W 18:44:34 10° NW
BREEZE-M DEB (TANK) 2.2 18:39:09 10° WSW 18:41:46 59° NW 18:43:04 22° NE
Cosmos 1633 Rocket 4.4 18:40:01 10° SE 18:42:54 19° E 18:42:54 19° E
Lacrosse 5 rocket 2.9 18:41:08 10° N 18:43:38 16° NE 18:43:38 16° NE
FREGAT/IRIS 3.7 18:45:35 10° SE 18:52:42 - N 18:47:34 26° ESE
OTV 4 0.4 18:45:28 10° WNW 18:48:24 65° N 18:49:25 36° E
CENTAUR R/B 4.1 18:44:56 10° WSW 18:50:12 29° NW 18:56:03 10° NNE
Meteor 1-11 4.2 18:46:42 10° S 18:52:20 79° E 18:58:04 10° N
Resurs 01 Rocket 3.2 18:54:23 18° NE 18:54:23 18° NE 18:56:06 10° NNE
OAO 3 Rocket 4.3 18:49:28 10° W 18:54:04 41° SSW 18:58:33 10° SE
Meteor 1-28 Rocket 3.9 18:57:06 10° N 19:00:45 54° WNW 19:04:22 10° SSW
Cosmos 1844 Rocket 3.8 18:55:50 10° NNW 19:01:14 47° WSW 19:06:35 10° S
Aureole 2 Rocket 2.4 18:58:38 10° SSW 19:02:09 88° ESE 19:04:38 21° NNE
COSMO-SKYMED 1 4.0 18:59:15 10° N 19:03:16 38° WNW 19:07:17 10° SW
CZ-3A R/B 3.5 18:59:08 10° NNW 19:03:23 32° NE 19:04:51 27° ENE
Cosmos 1707 Rocket 3.9 19:03:06 10° N 19:07:11 39° E 19:11:14 10° SSE
FengYun 1-2 T 4.5 19:03:25 10° SE 19:08:39 43° ENE 19:13:52 10° N
Cosmos 1461 3.1 19:05:46 10° S 19:09:52 49° ESE 19:10:31 44° E
SJ-6B 2.7 19:07:33 10° SSE 19:11:33 77° ENE 19:15:40 10° N
Cosmos 2279 Rocket 4.0 19:08:03 10° N 19:14:17 86° W 19:20:30 10° S
Cosmos 1666 Rocket 3.5 19:10:13 10° S 19:14:24 53° E 19:15:25 43° NE
Intelsat 5-1 Rocket 4.0 19:14:39 10° SSW 19:16:56 17° SSE 19:18:34 15° SE
Milstar 3 3.8 19:11:52 10° W 19:17:58 38° SSW 19:23:49 14° SE
Cosmos 2058 4.0 19:15:24 10° SSW 19:19:20 45° W 19:23:17 10° N
FENGYUN 3A 3.6 19:18:04 10° SSE 19:23:16 55° ENE 19:28:31 10° N
Cosmos 304 Rocket 3.8 19:20:36 10° SSW 19:25:24 78° WNW 19:28:08 26° NNE
Cosmos 2333 Rocket 3.8 19:20:54 10° WSW 19:25:54 32° WNW 19:30:55 10° N
Cosmos 1703 3.6 19:23:25 10° SSW 19:27:17 65° W 19:29:16 27° N
Atlas Centaur 2 4.0 19:28:30 10° WSW 19:30:50 14° SSW 19:33:00 10° S
Cosmos 773 Rocket 4.3 19:26:08 10° S 19:30:20 44° SE 19:30:20 44° SE
Nadezhda 4 Rocket 3.9 19:25:09 10° S 19:31:21 80° E 19:37:40 10° N
Cosmos 372 Rocket 4.5 19:32:31 10° NNW 19:37:31 58° WSW 19:42:29 10° S
Cosmos 1356 Rocket 3.7 19:39:32 10° SSW 19:43:30 60° W 19:43:34 60° WNW
Cosmos 2278 Rocket 3.2 19:42:23 10° NW 19:47:45 45° WSW 19:53:05 10° S
Cosmos 1092 Rocket 3.9 19:42:21 10° S 19:48:39 78° E 19:51:46 32° NNE
USA 215 3.4 19:45:33 20° SSE 19:50:21 70° SW 19:56:54 10° NW
Cosmos 1626 3.5 19:49:14 10° SSW 19:52:37 37° W 19:52:37 37° W
OAO 1 Rocket 4.5 19:51:52 10° W 19:56:48 74° WSW 19:56:48 74° WSW
Aureole 1 Rocket 3.9 19:55:42 10° SSW 19:59:14 55° SSW 19:59:14 55° SSW
Haruka 4.4 20:00:32 10° W 20:05:37 69° S 20:09:16 46° ESE
ALOS 3.2 20:02:45 10° S 20:07:14 47° W 20:11:44 10° NNW
BREEZE-M DEB (TANK) 4.1 20:05:57 10° SSW 20:35:26 - NE 20:08:58 48° S
Spot 2 Rocket 4.3 20:07:46 10° S 20:12:38 49° W 20:17:32 10° NNW
SL-16 R/B 3.4 20:09:16 10° SW 20:14:30 38° WNW 20:16:18 30° NNW
Lacrosse 5 rocket 4.2 20:19:13 10° NW 20:19:24 11° NW 20:19:24 11° NW
Resurs 01 Rocket 4.3 20:31:56 14° NW 20:31:56 14° NW 20:32:42 10° NW
USA 229 DEB 4.0 20:25:48 10° SW 20:31:47 64° W 20:31:47 64° W
USA 229 4.0 20:25:54 10° SW 20:31:50 64° WSW 20:31:50 64° WSW
H-2A ROCKET BODY 4.1 20:55:22 10° W 21:02:29 29° WSW 21:02:29 29° WSW
